www.pogodaiklimat.ru
Время
и дата
13:53 30.01
14:53 30.01
15:53 30.01
16:53 30.01
17:53 30.01
18:53 30.01
19:53 30.01
20:53 30.01
21:53 30.01
22:53 30.01
23:53 30.01
00:53 31.01
01:53 31.01
02:53 31.01
03:53 31.01
04:53 31.01
05:53 31.01
06:53 31.01
07:53 31.01
08:53 31.01
09:53 31.01
10:53 31.01
11:53 31.01
12:53 31.01
13:53 31.01
14:53 31.01
15:53 31.01
16:53 31.01
17:53 31.01
18:53 31.01
19:53 31.01
20:53 31.01
21:53 31.01
22:53 31.01
23:53 31.01
00:53 01.02
01:53 01.02
02:53 01.02
03:53 01.02
04:53 01.02
05:53 01.02
06:53 01.02
07:53 01.02
08:53 01.02
09:53 01.02
10:53 01.02
11:53 01.02
12:53 01.02
Ветер
(напр.,м/с)
Видим. Явления Облачность Т
(С)
Тd
(С)
f
(%)
Тe
(С)
Тes
(С)
Комфортность P
(гПа)
Po
(гПа)
Тmin
(С)
Tmax
(С)
R
(мм)
R24
(мм)
S
(см)
штиль 0 16 км ясно -1.1 -15.0 34 -1 +4 1032.8 992.0
ЮВ 2 16 км ясно -0.6 -16.1 30 -3 -1 1032.2 991.4
Ю 3 16 км ясно -1.1 -15.0 34 -5 -4 1031.7 990.7 -6.1 -0.6
ЮВ 2 16 км ясно -2.2 -14.4 39 -5 -5 1030.6 989.7
штиль 0 16 км ясно -2.2 -13.9 40 -2 -2 1029.8 988.8
штиль 0 16 км ясно -2.8 -12.8 46 -3 -3 1029.9 989.1
штиль 0 16 км ясно -2.8 -13.9 42 -3 -3 1029.6 988.8
штиль 0 16 км 2/0 3600 m
[Ac]
-3.9 -13.3 48 -4 -4 1029.0 988.1
штиль 0 16 км ясно -4.4 -11.7 57 -5 -5 1028.4 987.8 -5.0 -1.1
ЮЗ 2 16 км ясно -4.4 -10.0 65 -8 -8 1028.0 987.5
16 км 2/0 3600 m
[Ac]
-4.4 -10.0 65 -5 -5 1027.8 987.5
штиль 0 16 км 10/0 3000 m
[Ac]
-3.9 -9.4 66 -5 -5 1027.2 986.8
штиль 0 16 км 10/0 2400 m
[Ac]
-3.3 -9.4 63 -4 -4 1026.8 986.5
штиль 0 16 км 10/0 2400 m
[Ac]
-3.3 -10.0 60 -4 -4 1026.8 986.5
штиль 0 16 км ясно -3.9 -9.4 66 -5 -5 1026.8 986.5 -5.0 -3.3
штиль 0 16 км ясно -4.4 -8.9 71 -5 -5 1026.3 985.8
штиль 0 16 км ясно -4.4 -9.4 68 -5 -5 1025.9 985.5
З 2 16 км 8/0 3000 m
[Ac]
-5.0 -8.9 74 -9 -9 1026.1 985.8
штиль 0 16 км 10/0 3000 m
[Ac]
-4.4 -8.9 71 -5 -5 1026.5 986.2
штиль 0 16 км 10/0 2100 m
[Ac]
-3.3 -9.4 63 -4 -4 1026.8 986.5
штиль 0 16 км 10/10 1950 м -2.2 -10.0 55 -3 -3 1026.8 986.5 -5.6 -2.2
штиль 0 16 км 8/0 2850 m
[Ac]
-1.7 -11.7 46 -2 0 1026.2 985.8
нст 2 16 км ясно -0.6 -12.8 39 -3 0 1025.3 985.2
Ю 3 16 км ясно -0.6 -13.3 38 -4 -1 1024.4 984.2
нст 2 16 км ясно 0.0 -12.2 39 -3 +1 1023.6 983.6
ЮВ 2 16 км ясно 0.0 -12.2 39 -3 0 1023.7 983.6
Ю 2 16 км ясно 0.0 -11.7 41 -3 -1 1023.6 983.6 -2.8 +0.6
штиль 0 16 км ясно 0.0 -12.2 39 0 0 1023.5 983.2
штиль 0 16 км ясно -1.7 -11.1 49 -2 -2 1023.9 983.6
штиль 0 16 км ясно -2.8 -10.0 58 -3 -3 1023.4 983.2
СВ 2 16 км ясно -2.8 -8.3 66 -6 -6 1023.7 983.2
штиль 0 16 км 2/0 3300 m
[Ac]
-3.3 -7.8 71 -4 -4 1024.0 983.6
СЗ 2 16 км ясно -3.9 -8.3 71 -8 -8 1023.6 983.6 -4.4
З 2 16 км ясно -5.0 -8.9 74 -9 -9 1023.7 983.6
штиль 0 16 км ясно -5.0 -8.3 78 -6 -6 1023.7 983.6
З 2 16 км ясно -5.0 -8.3 78 -9 -9 1023.3 983.2
З 2 16 км ясно -4.4 -8.3 74 -8 -8 1023.7 983.6
СЗ 2 16 км ясно -4.4 -8.3 74 -8 -8 1023.8 983.6
штиль 0 16 км ясно -4.4 -8.3 74 -5 -5 1023.7 983.6 -5.6 -3.9
штиль 0 16 км ясно -4.4 -7.8 77 -5 -5 1023.6 983.6
СЗ 2 16 км ясно -4.4 -7.8 77 -8 -8 1023.4 983.2
штиль 0 16 км ясно -4.4 -7.8 77 -5 -5 1023.6 983.2
ЮЗ 2 14 км ясно -4.4 -7.8 77 -8 -8 1024.1 983.9
ЮЗ 2 14 км ясно -3.9 -6.7 81 -8 -8 1024.2 983.9
штиль 0 16 км ясно -2.8 -7.8 68 -4 -2 1024.4 984.2 -4.4 -2.8
штиль 0 16 км ясно -2.2 -7.8 65 -3 +1 1024.5 984.2
штиль 0 16 км ясно -1.7 -7.8 63 -2 +3 1024.2 983.9
штиль 0 16 км ясно -1.1 -7.8 60 -2 +4 1023.6 983.6
Местоположение метеостанции Yakima Air Terminal: широта 46.5683 долгота -120.5428 высота над уровнем моря 324 м.
В архиве по умолчанию представлена погода в Якиме за последние 1-2 суток. Обновление информации о фактической погоде в базе происходит ежечасно! Архивные данные за месяц целиком и за предыдущие месяцы Вы можете получить, выбрав интересующий диапазон дат из раскрывающегося списка и нажав кнопку "Ввод!".
Внимание! Архив погоды МЕТАР в базе сайта по станциям, не включенным в климатический монитор, хранится не более 60 дней. Нет смысла пытаться выбрать более раннюю дату.
*Определитесь, кто Вы:
Внимание! Время в таблицах - местное (без учета летнего времени). Для получения всемирного времени необходимо вычесть поправку, которая равна -8 ч.
Смотрите также архив погоды в соседних городах и на ближайших метеорологических станциях:
Партнеры нашего сайта:      
Пояснения к столбцам:
  • Ветер - указаны скорость ветра в м/с - средняя за 10 мин, порывы в срок и между сроками (в фигурных скобках) и направление, откуда дует ветер: С - северный,
  • СВ - северо-восточный, В - восточный, ЮВ - юго-восточный, Ю - южный, ЮЗ - юго-западный, З - западный, СЗ - северо-западный.
  • Видимость - горизонтальная дальность видимости в метрах или километрах. При видимости от 1 до 10 км при отсутствии осадков обычно наблюдается дымка, при ухудшении видимости до 1 км и менее - туман. В сухую погоду видимость может ухудшаться дымом, пылью или мглою.
  • Явления - указаны атмосферные явления, наблюдавшиеся в срок или в последний час перед сроком; фигурными скобками обозначены явления, наблюдавшиеся между сроками (за 1-3 часа до срока); квадратными скобками обозначены град или гололедные отложения с указанием их диаметра в мм.
  • Облачность - указаны через наклонную черту общая и нижняя облачность в баллах и высота нижней границы облаков в метрах; квадратными скобками обозначены формы облаков: Ci - перистые, Cs - перисто-слоистые, Cc - перисто-кучевые, Ac - высококучевые, As - высокослоистые, Sc - слоисто-кучевые, Ns - слоисто-дождевые, Cu - кучевые, Cb - кучево-дождевые. Подробнее классификацию облаков см. в Атласе облаков (PDF).
  • T - Температура воздуха - температура, измеренная на высоте 2 м над землей.
  • Td - Температура точки росы - температура, при понижении до которой содержащийся в воздухе водяной пар достигнет насыщения.
  • f - Относительная влажность воздуха - влажноcть воздуха, измеренная на высоте 2 м над землей.
  • Te - Эффективная температура - температура, которую ощущает одетый по сезону человек в тени. Характеристика душности погоды. При расчете учитывается влияние влажности воздуха и скорости ветра на теплоощущения человека.
  • Tes - Эффективная температура на солнце - температура, которую ощущает человек, с поправкой на солнечный нагрев. Характеристика знойности погоды. Зависит от высоты солнца над горизонтом, облачности и скорости ветра. Ночью, в пасмурную погоду, а также при ветре 12 м/с и более поправка равна нулю.
  • P - Атмосферное давление - приведенное к уровню моря атмосферное давление.
  • Po - Атмосферное давление - измеренное на уровне метеостанции атмосферное давление.
  • Tmin - Минимальная температура - минимум температуры воздуха на высоте 2 м над землей.
  • Tmax - Максимальная температура - максимум температуры воздуха на высоте 2 м над землей.
  • R - Количество осадков - Количество выпавших осадков за период времени, мм. При наведении курсора мыши на число - период времени, за который выпало указанное количество осадков.
  • R24 - Количество осадков - Количество выпавших осадков за 24 часа, мм.
  • S - Снежный покров - Высота снежного покрова, см. При наведении курсора мыши на число - состояние снежного покрова и степень покрытия местности в баллах.